#timestamp,LO_Frequency,Hit,StdDev 
1514005215.7,286046997.2,N
1514005235.5,286046999.4,N
1514005255.3,286047000.7,N
1514005275.2,286047001.1,N
1514005295.0,286046998.2,N
1514005295.9,286046998.2,N
1514005315.8,286046999.7,N
1514005335.6,286047002.1,N
1514005355.4,286047002.8,N
1514005375.3,286047002.4,N
1514005395.1,286046996.6,N
1514005415.8,286046996.8,N
1514005435.7,286046997.0,N
1514005455.5,286046999.9,N
1514005475.4,286047000.7,N
1514005495.2,286047000.8,N
1514005515.0,286046998.1,N
1514005515.9,286046998.1,N
1514005535.8,286047000.8,N
1514005555.6,286046998.6,N
1514005575.5,286047000.8,N
1514005595.3,286046999.8,N
1514005615.1,286047000.6,N
1514005635.9,286046999.8,N
1514005655.7,286047001.8,N
1514005675.6,286047003.9,N
1514005695.4,286047003.1,N
1514005715.2,286047003.0,N
1514005735.1,286047001.4,N
1514005736.0,286047001.4,N
1514005755.8,286047000.3,N
1514005775.6,286047000.3,N
1514005795.5,286047003.6,N
1514005815.3,286047003.8,N
1514005835.2,286047002.8,N
1514005855.9,286047002.8,N
1514005875.7,286046998.3,N
1514005895.6,286046997.0,N
1514005915.4,286046995.5,N
1514005935.3,286046999.1,N
1514005955.1,286047000.5,N
1514005956.0,286047000.5,N
1514005975.8,286047002.2,N
1514005995.7,286047001.9,N
1514006015.5,286047001.6,N
1514006035.3,286047002.6,N
1514006055.2,286047001.6,N
1514006075.0,286046999.7,N
1514006075.9,286046999.7,N
1514006095.8,286047001.9,N
1514006115.6,286047003.7,N
1514006135.4,286047005.4,N
1514006155.3,286047007.5,Y
1514006175.1,286047005.6,P
1514006195.9,286047003.0,N
1514006215.7,286047003.0,N
1514006235.5,286047004.7,Y
1514006255.4,286047000.1,P
1514006275.2,286047002.3,N
1514006295.1,286047002.1,N
1514006296.0,286047002.1,N
1514006315.8,286046999.8,N
1514006335.6,286047000.4,N
1514006355.5,286047000.9,N
1514006375.3,286047000.3,N
1514006395.2,286046996.7,N
1514006415.9,286046997.8,N
1514006435.7,286046995.9,N
1514006455.6,286046993.4,Y
1514006475.4,286046995.8,P
1514006495.2,286046996.1,N
1514006515.1,286046996.9,N
1514006516.0,286046996.9,N
1514006535.8,286047000.3,N
1514006555.7,286047001.0,N
1514006575.5,286047000.2,N
1514006595.3,286047000.4,N
1514006615.2,286046998.9,N
1514006635.0,286046998.4,N
1514006635.9,286046998.4,N
1514006655.8,286046997.4,N
1514006675.6,286046997.2,N
1514006695.4,286046999.4,N
1514006715.3,286047000.5,N
1514006735.1,286047002.6,N
1514006755.9,286047001.4,N
1514006775.7,286047002.0,N
1514006795.5,286047000.4,N
1514006815.4,286047001.2,N
1514006835.2,286047000.0,N
1514006855.0,286047000.9,N
1514006855.9,286047000.9,N
1514006875.8,286046999.9,N
1514006895.6,286046999.9,N
1514006915.5,286047001.2,N
1514006935.3,286046998.7,N
1514006955.1,286046998.7,N
1514006975.9,286046998.5,N
1514006995.7,286046998.2,N
1514007015.6,286047001.2,N
1514007035.4,286046998.6,N
1514007055.2,286046998.1,N
1514007075.1,286046998.3,N
1514007076.0,286046998.3,N
1514007095.8,286047002.8,N
1514007115.6,286046999.8,N
1514007135.5,286046999.8,N
1514007155.3,286046999.8,N
1514007175.2,286046998.6,N
1514007195.9,286047001.2,N
1514007215.7,286046999.5,N
1514007235.6,286046999.5,N
1514007255.4,286046999.3,N
1514007275.3,286046999.3,N
1514007295.1,286047000.8,N
1514007296.0,286047000.8,N
1514007315.8,286046998.0,N
1514007335.7,286046995.2,Y
1514007355.5,286046993.8,P
1514007375.4,286046996.2,N
1514007395.2,286046996.6,N
1514007415.0,286046999.0,N
1514007415.9,286046999.0,N
1514007435.8,286046999.3,N
1514007455.6,286046998.7,N
1514007475.4,286046996.6,N
1514007495.3,286046996.8,N
1514007515.1,286046999.4,N
1514007535.9,286047002.6,N
1514007555.7,286047000.0,N
1514007575.5,286047000.8,N
1514007595.4,286047002.8,N
1514007615.2,286046999.8,N
1514007635.0,286046999.8,N
1514007636.0,286046999.8,N
1514007655.8,286047002.6,N
1514007675.6,286047002.0,N
1514007695.5,286047001.3,N
1514007715.3,286047003.0,N
1514007735.1,286047003.6,N
1514007755.9,286046999.8,N
1514007775.7,286047000.0,N
1514007795.6,286047002.5,N
1514007815.4,286047001.2,N
1514007835.2,286046999.7,N
1514007855.1,286047000.0,N
1514007856.0,286047000.0,N
1514007875.8,286047001.0,N
1514007895.6,286046998.2,N
1514007915.5,286047000.5,N
1514007935.3,286047002.5,N
1514007955.2,286047001.7,N
1514007975.9,286047003.8,N
1514007995.7,286047004.3,N
1514008015.6,286047004.2,N
1514008035.4,286047001.8,N
1514008055.3,286047002.5,N
1514008075.1,286047002.4,N
1514008076.0,286047002.4,N
1514008095.8,286047001.9,N
1514008115.7,286047003.9,N
1514008135.5,286047001.3,N
1514008155.3,286047002.5,N
1514008175.2,286047003.8,N
1514008195.0,286047002.0,N
1514008195.9,286047002.0,N
1514008215.8,286047002.8,N
1514008235.6,286047002.8,N
1514008255.4,286047000.3,N
1514008275.3,286046998.5,N
1514008295.1,286046998.8,N
1514008315.9,286046999.9,N
1514008335.7,286046999.8,N
1514008355.5,286047000.8,N
1514008375.4,286046999.2,N
1514008395.2,286047001.2,N
1514008415.0,286046999.6,N
1514008416.0,286046999.6,N
1514008435.8,286046997.1,N
1514008455.6,286046996.8,N
1514008475.5,286046998.8,N
1514008495.3,286047000.5,N
1514008515.1,286047002.8,N
1514008535.9,286047000.2,N
1514008555.7,286046998.8,N
1514008575.6,286046997.2,N
1514008595.4,286046998.6,N
1514008615.2,286047000.7,N
1514008635.1,286047002.1,N
1514008636.0,286047002.1,N
1514008655.8,286047002.5,N
1514008675.7,286047000.5,N
1514008695.5,286047002.4,N
1514008715.3,286047002.8,N
1514008735.2,286047001.6,N
1514008755.0,286047004.2,N
1514008755.9,286047004.2,N
1514008775.8,286047001.8,N
1514008795.6,286047004.4,N
